Voltar ao catálogo

BRO-31

AtivoRádio AmadorSSO
NORAD 69896·PAYLOAD·🇺🇸 United States

Lançado Jul 7, 2026 de Vandenberg Space Force Base

Loading…

Próximas Passagens (próximas 24 horas)

TLE

AtualizadoSource: Space-Track

Época: Sep 14, 2026, 03:33 UTC

1 69896U 26156AD  26257.14839931  .00001335  00000-0  13675-3 0  9995
2 69896  97.7450 156.4774 0006277 295.0456  65.0111 14.92142362 10266

Acompanhe BRO-31 em tempo real com AllMySat

Download on the App Store